Home   Weather   Batesville   Past weeks
Flag for USA

Past Weather in Batesville, Mississippi, USA — Yesterday and Last 2 Weeks

Now
75 °F

Mostly cloudy.


Feels Like: 75 °F
Forecast: 81 / 73 °F
Wind: 10 mph from South

Location: University-Oxford Airport

Current Time: Jul 16, 2019 at 2:05:39 am

Latest Report: Jul 16, 2019 at 1:15 am


Visibility: 9 mi

Pressure: 30.02 "Hg

Humidity: 89%

Dew Point: 72 °F

Location of BatesvilleLocation

Past Weather in Batesville — Graph

°F

Batesville Temperature Yesterday

Maximum temperature yesterday: 79 °F (at 6:15 pm)
Minimum temperature yesterday: 70 °F (at 12:15 am)
Average temperature yesterday: 73 °F

High & Low Weather Summary for the Past Weeks

 TemperatureHumidityPressure
High93 °F (Jul 8, 2:15 pm)100% (Jul 1, 12:15 am)30.19 "Hg (Jul 1, 12:15 am)
Low68 °F (Jul 5, 5:35 am)46% (Jul 5, 4:55 pm)29.85 "Hg (Jul 11, 6:15 pm)
Average79 °F82%30.01 "Hg
* Reported Jul 1 12:15 am — Jul 16 12:55 am, Batesville. Weather by CustomWeather, © 2019

Note: Actual official high and low records may vary slightly from our data, if they occured in-between our weather recording intervals... More about our weather records

Advertising

Batesville Weather History for the Previous 24 Hours

Scroll right to see more
 ConditionsComfort  
Time TempWeatherWind HumidityBarometerVisibility
12:55 am
Tue, Jul 16
75 °FMostly cloudy.10 mph89%30.02 "Hg9 mi
12:35 am73 °FPartly cloudy.9 mph94%30.02 "Hg10 mi
12:15 am73 °FMostly cloudy.9 mph94%30.02 "Hg10 mi
11:55 pm
Mon, Jul 15
73 °FOvercast.9 mph94%30.03 "Hg10 mi
11:35 pm73 °FOvercast.10 mph94%30.03 "Hg10 mi
11:15 pm73 °FMostly cloudy.10 mph94%30.02 "Hg10 mi
10:55 pm73 °FMostly cloudy.12 mph94%30.02 "Hg10 mi
10:35 pm73 °FPassing clouds.14 mph94%30.01 "Hg10 mi
10:15 pm73 °FMostly cloudy.9 mph94%30.01 "Hg10 mi
9:35 pm73 °FMostly cloudy.7 mph94%30.00 "Hg10 mi
9:15 pm73 °FPartly cloudy.9 mph94%29.99 "Hg10 mi
8:55 pm75 °FPassing clouds.8 mph89%29.99 "Hg10 mi
8:35 pm75 °FPassing clouds.9 mph89%29.98 "Hg10 mi
8:15 pm75 °FPartly cloudy.8 mph89%29.97 "Hg9 mi
7:55 pm77 °FPartly sunny.9 mph83%29.97 "Hg9 mi
7:35 pm77 °FPartly sunny.7 mph83%29.97 "Hg9 mi
7:15 pm77 °FScattered clouds.10 mph83%29.97 "Hg10 mi
6:55 pm79 °FPassing clouds.14 mph79%29.96 "Hg9 mi
6:35 pm79 °FPassing clouds.8 mph84%29.97 "Hg9 mi
6:15 pm79 °FBroken clouds.14 mph84%29.97 "Hg8 mi
5:55 pm77 °FBroken clouds.9 mph89%29.97 "Hg9 mi
5:35 pm77 °FScattered clouds.8 mph89%29.97 "Hg9 mi
5:15 pm77 °FSunny.7 mph94%29.98 "Hg9 mi
4:55 pm75 °FSunny.8 mph100%29.98 "Hg8 mi
4:35 pm75 °FSunny.10 mph94%29.99 "Hg5 mi
4:15 pm73 °FBroken clouds.9 mph94%30.00 "Hg10 mi
3:55 pm73 °FRain. Broken clouds.28 mph89%30.01 "Hg2 mi
3:35 pm77 °FMostly cloudy.10 mph89%30.00 "Hg10 mi
3:15 pm77 °FMostly cloudy.10 mph89%30.00 "Hg9 mi
2:55 pm75 °FPartly sunny.8 mph94%30.00 "Hg10 mi
2:35 pm75 °FMostly cloudy.14 mph100%30.00 "Hg9 mi
2:15 pm75 °FMostly cloudy.15 mph100%30.00 "Hg9 mi
1:55 pm73 °FBroken clouds.8 mph100%30.00 "Hg9 mi
1:35 pm73 °FSunny.8 mph100%30.01 "Hg8 mi
1:15 pm73 °FLight rain. Scattered clouds.9 mph100%30.02 "Hg3 mi
12:55 pm73 °FLight rain. Broken clouds.16 mph100%30.03 "Hg4 mi
12:35 pm73 °FDrizzle. Broken clouds.14 mph100%30.02 "Hg3 mi
12:15 pm73 °FDrizzle. Mostly cloudy.14 mph100%30.02 "Hg8 mi
11:55 am73 °FOvercast.13 mph100%30.02 "Hg9 mi
11:35 am73 °FPartly sunny.9 mph100%30.02 "Hg9 mi
11:15 am73 °FDrizzle. Partly sunny.10 mph100%30.02 "Hg9 mi
10:55 am72 °FDrizzle. Partly sunny.10 mph100%30.02 "Hg8 mi
10:35 am72 °FDrizzle. Partly sunny.13 mph100%30.03 "Hg3 mi
10:15 am72 °FLight rain. Broken clouds.8 mph100%30.02 "Hg2 mi
9:55 am72 °FDrizzle. Broken clouds.12 mph100%30.02 "Hg7 mi
9:35 am72 °FDrizzle. Cloudy.10 mph100%30.02 "Hg2 mi
9:15 am72 °FLight rain. Broken clouds.9 mph100%30.02 "Hg2 mi
8:35 am72 °FLight rain. Scattered clouds.9 mph100%30.02 "Hg4 mi
8:15 am72 °FDrizzle. Broken clouds.10 mph100%30.02 "Hg3 mi
7:55 am70 °FLight rain. Partly sunny.9 mph100%30.02 "Hg4 mi
7:35 am72 °FDrizzle. Broken clouds.7 mph100%30.01 "Hg5 mi
7:15 am70 °FBroken clouds.12 mph100%30.01 "Hg9 mi
6:55 am70 °FCloudy.12 mph100%30.00 "Hg9 mi
6:35 am70 °FMostly cloudy.8 mph100%30.01 "Hg9 mi
6:15 am70 °FDrizzle. Cloudy.12 mph100%30.01 "Hg7 mi
5:55 am70 °FLight rain. Mostly cloudy.9 mph100%30.00 "Hg3 mi
5:35 am70 °FRain. Mostly cloudy.9 mph100%30.00 "Hg2 mi
5:15 am70 °FDrizzle. Mostly cloudy.9 mph100%29.99 "Hg6 mi
4:55 am70 °FDrizzle. Mostly cloudy.8 mph100%29.99 "Hg7 mi
4:35 am70 °FLight rain. Mostly cloudy.8 mph100%29.99 "Hg4 mi
4:15 am70 °FOvercast.12 mph100%29.98 "Hg8 mi
3:55 am70 °FPartly cloudy.9 mph100%29.99 "Hg10 mi
3:35 am70 °FOvercast.9 mph100%29.99 "Hg8 mi
3:15 am70 °FMostly cloudy.9 mph100%30.00 "Hg8 mi
2:35 am70 °FDrizzle. Mostly cloudy.7 mph100%30.02 "Hg6 mi
2:15 am70 °FOvercast.8 mph100%30.02 "Hg10 mi
Weather by CustomWeather, © 2019

See weather overview

LIVE PARTIAL LUNAR ECLIPSE – Watch the eclipse as it happens